Location: Songkhla
(7.2000°N, 100.6000°E)
Time: 03:22:02
(UTC+07:00)

BRICSAT 2 - Pass Details

Date: 25 June 2021
Orbit: 295 x 638 km, 28.5° (Epoch: 28 July)

Event Time Altitude Azimuth Distance (km) Brightness Sun altitude
Rises 19:27:07 0° 288° (WNW) 2,338 ? -12.2°
Reaches altitude 10° 19:29:11 10° 281° (W) 1,540 ? -12.7°
Maximum altitude 19:32:33 42° 209° (SSW) 692 ? -13.4°
Enters shadow 19:34:54 20° 147° (SSE) 1,219 ? -14.0°
Drops below altitude 10° 19:36:23 10° 137° (SE) 1,754 - -14.3°
Sets 19:38:53 0° 131° (SE) 2,715 - -14.8°
